Location: Cabeza de los Veneras
(40.2000°N, 5.2000°W)
Time: 12:36:25
(UTC+00:00)

Spot 2 Rocket - Pass Details

Date: 18 April 2024
Orbit: 754 x 769 km, 98.4° (Epoch: 26 May)

Event Time Altitude Azimuth Distance (km) Brightness Sun altitude
Exits shadow 22:17:06 45° 288° (WNW) 1,025 4.3 -31.2°
Drops below altitude 10° 22:21:16 10° 336° (NNW) 2,297 6.8 -31.7°
Sets 22:23:39 0° 341° (NNW) 3,225 7.8 -31.9°
